IA5ITY-13 Weather Reports


time (UTC)temp
C
wind
direction
speed
KPH
gust
KPH
rain 1hr
cm
rain 24hr
cm
rain mn
cm
humidity
%
barometer
mb
20260508044013 17 82 0.0 0.0 0.00 0.00 0.00 57 1009.6
20260508043508 17 90 0.0 0.0 0.00 0.00 0.00 56 1009.6
20260508043023 17 76 0.0 0.0 0.00 0.00 0.00 57 1009.6
20260508042510 17 90 0.0 0.0 0.00 0.00 0.00 56 1009.6
20260508042012 17 46 0.0 0.0 0.00 0.00 0.00 56 1009.5
20260508041512 17 72 0.0 0.0 0.00 0.00 0.00 57 1009.5
20260508040509 17 77 0.0 0.0 0.00 0.00 0.00 55 1009.5
20260508040032 17 65 0.0 0.0 0.00 0.00 0.00 55 1009.5
20260508035509 17 97 0.0 0.0 0.00 0.00 0.00 54 1009.4
20260508035013 17 92 0.0 0.0 0.00 0.00 0.00 54 1009.4
20260508034512 17 142 0.0 0.0 0.00 0.00 0.00 52 1009.3
20260508034012 17 242 0.0 0.0 0.00 0.00 0.00 53 1009.3
20260508033509 17 76 1.6 1.6 0.00 0.00 0.00 51 1009.4
20260508033023 17 116 0.0 0.0 0.00 0.00 0.00 54 1009.4
20260508032509 17 147 0.0 0.0 0.00 0.00 0.00 47 1009.3
20260508032014 17 58 0.0 0.0 0.00 0.00 0.00 47 1009.3
20260508031512 17 81 0.0 0.0 0.00 0.00 0.00 43 1009.4
20260508031013 17 80 0.0 0.0 0.00 0.00 0.00 40 1009.4
20260508030509 17 53 0.0 0.0 0.00 0.00 0.00 38 1009.4
20260508030032 17 91 1.6 1.6 0.00 0.00 0.00 40 1009.4
20260508025509 17 86 0.0 0.0 0.00 0.00 0.00 40 1009.3
20260508025013 17 56 1.6 3.2 0.00 0.00 0.00 42 1009.4
20260508024512 17 55 0.0 0.0 0.00 0.00 0.00 41 1009.4
20260508024012 17 71 0.0 0.0 0.00 0.00 0.00 40 1009.5
20260508023509 17 90 0.0 0.0 0.00 0.00 0.00 40 1009.5
20260508023022 17 61 0.0 0.0 0.00 0.00 0.00 36 1009.5
20260508022509 17 22 0.0 0.0 0.00 0.00 0.00 35 1009.5
20260508022013 18 45 0.0 0.0 0.00 0.00 0.00 35 1009.5
20260508021512 18 50 0.0 0.0 0.00 0.00 0.00 33 1009.5
20260508021013 18 62 0.0 0.0 0.00 0.00 0.00 36 1009.5
20260508020509 18 41 0.0 0.0 0.00 0.00 0.00 34 1009.5
20260508020032 18 33 0.0 0.0 0.00 0.00 0.00 34 1009.5
20260508015509 17 38 0.0 0.0 0.00 0.00 0.00 36 1009.5
20260508015012 17 40 1.6 1.6 0.00 0.00 0.00 37 1009.5
20260508014513 17 90 0.0 0.0 0.00 0.00 0.00 39 1009.5
20260508014013 17 73 0.0 0.0 0.00 0.00 0.00 39 1009.6
20260508013509 17 7 0.0 0.0 0.00 0.00 0.00 40 1009.6
20260508013022 17 68 0.0 0.0 0.00 0.00 0.00 41 1009.6
20260508012510 17 50 0.0 0.0 0.00 0.00 0.00 42 1009.7
20260508012014 17 22 0.0 0.0 0.00 0.00 0.00 44 1009.8
20260508011512 17 76 0.0 0.0 0.00 0.00 0.00 47 1009.8
20260508011014 16 56 0.0 0.0 0.00 0.00 0.00 53 1009.9
20260508010509 15 76 0.0 0.0 0.00 0.00 0.00 60 1010.0
20260508010032 15 55 0.0 0.0 0.00 0.00 0.00 61 1010.0
20260508005509 13 46 0.0 0.0 0.00 0.00 0.00 66 1010.1
20260508005013 13 56 1.6 1.6 0.00 0.00 0.00 69 1010.2
20260508004513 13 57 0.0 0.0 0.00 0.00 0.00 65 1010.2
20260508004012 13 57 0.0 0.0 0.00 0.00 0.00 64 1010.3
20260508003509 13 48 0.0 0.0 0.00 0.00 0.00 65 1010.4
20260508003023 13 43 0.0 0.0 0.00 0.00 0.00 63 1010.4
20260508002510 15 30 0.0 0.0 0.00 0.00 0.00 60 1010.4
20260508002013 13 45 0.0 0.0 0.00 0.00 0.00 62 1010.5
20260508001518 13 53 0.0 0.0 0.00 0.00 0.00 63 1010.6
20260508000509 13 60 0.0 0.0 0.00 0.00 0.00 61 1010.8
20260508000035 13 35 1.6 1.6 0.00 0.00 0.00 62 1010.9
20260507235510 13 52 1.6 1.6 0.00 0.00 0.00 63 1010.9
20260507235014 13 47 0.0 0.0 0.00 0.00 0.00 62 1011.0
20260507234512 13 67 0.0 0.0 0.00 0.00 0.00 61 1011.1
20260507234014 13 67 0.0 0.0 0.00 0.00 0.00 66 1011.0
20260507233509 12 50 0.0 0.0 0.00 0.00 0.00 66 1011.1
20260507233022 12 41 0.0 0.0 0.00 0.00 0.00 66 1011.1
20260507232509 13 53 0.0 0.0 0.00 0.00 0.00 65 1011.2
20260507232012 13 51 0.0 0.0 0.00 0.00 0.00 64 1011.3
20260507231513 13 64 0.0 0.0 0.00 0.00 0.00 64 1011.4
20260507231013 13 47 0.0 0.0 0.00 0.00 0.00 63 1011.4
20260507230510 12 59 0.0 0.0 0.00 0.00 0.00 65 1011.5
20260507230032 12 29 0.0 0.0 0.00 0.00 0.00 65 1011.6
20260507225510 12 69 0.0 0.0 0.00 0.00 0.00 66 1011.6
20260507225013 12 50 0.0 0.0 0.00 0.00 0.00 68 1011.6
20260507224512 13 25 0.0 0.0 0.00 0.00 0.00 65 1011.7
20260507224013 13 50 0.0 0.0 0.00 0.00 0.00 65 1011.7
20260507223509 12 47 0.0 0.0 0.00 0.00 0.00 67 1011.7
20260507223024 13 49 1.6 1.6 0.00 0.00 0.00 65 1011.7
20260507222509 13 64 0.0 0.0 0.00 0.00 0.00 66 1011.7
20260507222013 12 41 0.0 0.0 0.00 0.00 0.00 67 1011.7
20260507221513 13 42 0.0 0.0 0.00 0.00 0.00 66 1011.7
20260507221015 13 41 0.0 0.0 0.00 0.00 0.00 66 1011.7
20260507220510 13 37 0.0 0.0 0.00 0.00 0.00 66 1011.7
20260507220034 13 48 0.0 0.0 0.00 0.00 0.00 67 1011.7
20260507215510 13 47 0.0 0.0 0.00 0.00 0.00 67 1011.7
20260507215013 13 61 0.0 0.0 0.00 0.00 0.00 64 1011.7
20260507214514 13 37 0.0 0.0 0.00 0.00 0.00 64 1011.8
20260507214014 13 56 0.0 0.0 0.00 0.00 0.00 65 1011.8
20260507213510 13 44 0.0 0.0 0.00 0.00 0.00 67 1011.7
20260507213025 13 57 0.0 0.0 0.00 0.00 0.00 65 1011.7
20260507212509 13 54 0.0 0.0 0.00 0.00 0.00 63 1011.7
20260507211513 13 55 0.0 0.0 0.00 0.00 0.00 67 1011.8
20260507211014 13 53 0.0 0.0 0.00 0.00 0.00 65 1011.8
20260507210510 13 62 0.0 0.0 0.00 0.00 0.00 64 1011.8
20260507210033 13 61 0.0 0.0 0.00 0.00 0.00 65 1011.8
20260507205014 13 45 0.0 0.0 0.00 0.00 0.00 65 1011.8
20260507204513 13 45 0.0 0.0 0.00 0.00 0.00 65 1011.8
20260507204015 13 58 3.2 3.2 0.00 0.00 0.00 64 1011.8
20260507203510 13 75 1.6 1.6 0.00 0.00 0.00 65 1011.7
20260507203023 13 50 0.0 0.0 0.00 0.00 0.00 66 1011.7
20260507202509 13 41 1.6 3.2 0.00 0.00 0.00 64 1011.7
20260507202014 13 50 0.0 0.0 0.00 0.00 0.00 66 1011.7
20260507201513 13 69 1.6 1.6 0.00 0.00 0.00 66 1011.7
20260507201013 13 59 0.0 0.0 0.00 0.00 0.00 67 1011.6
20260507195509 13 59 0.0 0.0 0.00 0.00 0.00 69 1011.5
20260507194512 13 48 0.0 0.0 0.00 0.00 0.00 68 1011.5
20260507194014 13 65 0.0 0.0 0.00 0.00 0.00 70 1011.4
20260507193510 13 66 1.6 1.6 0.00 0.00 0.00 71 1011.4
20260507193024 13 62 0.0 0.0 0.00 0.00 0.00 72 1011.4
20260507192510 15 54 3.2 3.2 0.00 0.00 0.00 72 1011.4
20260507192014 15 61 1.6 1.6 0.00 0.00 0.00 71 1011.4
20260507191513 15 64 0.0 0.0 0.00 0.00 0.00 71 1011.3
20260507191015 15 59 0.0 0.0 0.00 0.00 0.00 77 1011.3
20260507190510 15 47 0.0 0.0 0.00 0.00 0.00 77 1011.2
20260507190034 15 52 1.6 1.6 0.00 0.00 0.00 77 1011.1
20260507185509 15 65 0.0 0.0 0.00 0.00 0.00 75 1011.2
20260507185014 15 55 0.0 0.0 0.00 0.00 0.00 74 1011.3
20260507184013 16 58 1.6 1.6 0.00 0.00 0.00 73 1011.4
20260507183510 16 58 0.0 0.0 0.00 0.00 0.00 74 1011.5
20260507183024 16 22 0.0 0.0 0.00 0.00 0.00 78 1011.5
20260507182509 16 39 0.0 0.0 0.00 0.00 0.00 80 1011.5
20260507182015 16 45 3.2 3.2 0.00 0.00 0.00 83 1011.5
20260507181513 17 51 1.6 1.6 0.00 0.00 0.00 87 1011.5
20260507181014 17 63 0.0 0.0 0.00 0.00 0.00 87 1011.6
20260507180510 17 64 0.0 0.0 0.00 0.00 0.00 86 1011.6
20260507180032 17 89 1.6 1.6 0.00 0.00 0.00 84 1011.6
20260507175509 17 44 0.0 0.0 0.00 0.00 0.00 82 1011.5
20260507174514 17 87 0.0 0.0 0.00 0.00 0.00 78 1011.6
20260507174013 18 85 3.2 11.3 0.00 0.00 0.00 75 1011.6
20260507173510 18 228 6.4 8.0 0.00 0.00 0.00 74 1011.7
20260507173025 18 114 3.2 3.2 0.00 0.00 0.00 72 1011.7
20260507172013 18 308 3.2 4.8 0.00 0.00 0.00 71 1011.6
20260507171513 18 159 0.0 0.0 0.00 0.00 0.00 71 1011.7
20260507171013 20 129 3.2 3.2 0.00 0.00 0.00 69 1011.6
20260507170510 18 232 0.0 0.0 0.00 0.00 0.00 71 1011.6
20260507170034 21 173 6.4 6.4 0.00 0.00 0.00 65 1011.6
20260507165510 20 187 0.0 0.0 0.00 0.00 0.00 70 1011.6
20260507165013 20 158 0.0 0.0 0.00 0.00 0.00 69 1011.6
20260507164513 20 149 0.0 0.0 0.00 0.00 0.00 74 1011.5
20260507164013 20 137 0.0 0.0 0.00 0.00 0.00 70 1011.5
20260507163510 20 176 0.0 0.0 0.00 0.00 0.00 69 1011.6
20260507163024 21 199 0.0 0.0 0.00 0.00 0.00 64 1011.6
20260507162509 21 183 0.0 0.0 0.00 0.00 0.00 65 1011.6
20260507162013 20 232 4.8 4.8 0.00 0.00 0.00 66 1011.5
20260507161513 21 177 0.0 0.0 0.00 0.00 0.00 63 1011.5
20260507161013 21 126 1.6 1.6 0.00 0.00 0.00 61 1011.6
20260507160510 21 190 0.0 0.0 0.00 0.00 0.00 63 1011.6
20260507160034 21 187 0.0 0.0 0.00 0.00 0.00 63 1011.5
20260507155013 21 157 0.0 0.0 0.00 0.00 0.00 67 1011.4
20260507154515 21 176 0.0 0.0 0.00 0.00 0.00 71 1011.5
20260507154014 21 193 0.0 0.0 0.00 0.00 0.00 71 1011.7
20260507153510 21 130 0.0 0.0 0.00 0.00 0.00 73 1011.7
20260507153024 21 184 0.0 0.0 0.00 0.00 0.00 71 1011.7
20260507152509 21 176 0.0 0.0 0.00 0.00 0.00 72 1011.7
20260507152013 21 162 3.2 3.2 0.00 0.00 0.00 70 1011.7
20260507151513 21 144 0.0 0.0 0.00 0.00 0.00 70 1011.7
20260507151014 21 137 0.0 0.0 0.00 0.00 0.00 68 1011.6
20260507150510 21 185 0.0 0.0 0.00 0.00 0.00 67 1011.6
20260507150033 21 145 0.0 0.0 0.00 0.00 0.00 67 1011.6
20260507145510 21 210 0.0 0.0 0.00 0.00 0.00 66 1011.7
20260507145013 22 188 0.0 0.0 0.00 0.00 0.00 67 1011.7
20260507144513 21 120 0.0 0.0 0.00 0.00 0.00 65 1011.8
20260507144015 21 147 1.6 3.2 0.00 0.00 0.00 66 1011.9
20260507143510 22 179 1.6 6.4 0.00 0.00 0.00 65 1011.9
20260507143026 21 125 1.6 1.6 0.00 0.00 0.00 66 1012.0
20260507142509 21 189 0.0 0.0 0.00 0.00 0.00 65 1011.9
20260507142013 22 230 0.0 0.0 0.00 0.00 0.00 67 1011.9
20260507141514 22 245 0.0 0.0 0.00 0.00 0.00 64 1012.0
20260507141013 22 142 0.0 0.0 0.00 0.00 0.00 61 1011.9
20260507140509 22 131 0.0 0.0 0.00 0.00 0.00 59 1012.0
20260507140032 22 158 0.0 0.0 0.00 0.00 0.00 59 1012.0
20260507135510 22 194 0.0 0.0 0.00 0.00 0.00 61 1012.0
20260507135016 22 221 0.0 0.0 0.00 0.00 0.00 63 1012.1
20260507134013 21 211 0.0 0.0 0.00 0.00 0.00 59 1012.1
20260507133510 22 135 0.0 0.0 0.00 0.00 0.00 60 1012.2
20260507133023 21 199 0.0 0.0 0.00 0.00 0.00 65 1012.2
20260507132510 21 175 0.0 0.0 0.00 0.00 0.00 65 1012.3
20260507131513 21 113 0.0 0.0 0.00 0.00 0.00 65 1012.5
20260507131014 22 189 0.0 0.0 0.00 0.00 0.00 64 1012.6
20260507130510 22 171 3.2 8.0 0.00 0.00 0.00 66 1012.6
20260507130033 22 228 3.2 3.2 0.00 0.00 0.00 66 1012.7
20260507125510 21 161 1.6 1.6 0.00 0.00 0.00 67 1012.7
20260507125014 21 149 0.0 0.0 0.00 0.00 0.00 66 1012.8
20260507124513 21 213 3.2 6.4 0.00 0.00 0.00 68 1012.9
20260507124013 21 186 0.0 0.0 0.00 0.00 0.00 67 1012.9
20260507123509 21 201 1.6 3.2 0.00 0.00 0.00 67 1012.9
20260507123024 21 225 0.0 0.0 0.00 0.00 0.00 66 1012.9
20260507122510 22 227 0.0 0.0 0.00 0.00 0.00 63 1012.9
20260507122013 22 165 0.0 0.0 0.00 0.00 0.00 62 1013.0
20260507121513 22 162 0.0 0.0 0.00 0.00 0.00 63 1012.9
20260507121014 21 167 0.0 0.0 0.00 0.00 0.00 63 1012.9
20260507120510 22 206 1.6 1.6 0.00 0.00 0.00 62 1012.8
20260507120033 21 111 0.0 0.0 0.00 0.00 0.00 62 1012.8
20260507115509 22 178 0.0 0.0 0.00 0.00 0.00 63 1012.8
20260507114513 22 167 0.0 0.0 0.00 0.00 0.00 63 1012.8
20260507114014 22 173 4.8 4.8 0.00 0.00 0.00 64 1012.8
20260507113510 21 197 9.7 11.3 0.00 0.00 0.00 65 1012.8
20260507113024 21 229 14.5 14.5 0.00 0.00 0.00 65 1012.8
20260507112509 21 101 1.6 1.6 0.00 0.00 0.00 66 1012.8
20260507112013 21 226 1.6 1.6 0.00 0.00 0.00 67 1012.9
20260507111513 21 197 3.2 3.2 0.00 0.00 0.00 67 1012.9
20260507111013 21 128 1.6 1.6 0.00 0.00 0.00 70 1013.0
20260507110509 21 148 0.0 0.0 0.00 0.00 0.00 68 1013.0
20260507110032 21 182 3.2 3.2 0.00 0.00 0.00 67 1013.1
20260507105509 21 136 1.6 1.6 0.00 0.00 0.00 68 1013.2
20260507105013 21 164 1.6 1.6 0.00 0.00 0.00 70 1013.3
20260507104512 21 130 0.0 0.0 0.00 0.00 0.00 70 1013.3
20260507104014 20 153 0.0 0.0 0.00 0.00 0.00 76 1013.3
20260507103510 20 130 0.0 0.0 0.00 0.00 0.00 76 1013.3
20260507103025 20 119 0.0 0.0 0.00 0.00 0.00 71 1013.3
20260507102510 21 142 0.0 0.0 0.00 0.00 0.00 71 1013.4
20260507102013 20 187 0.0 0.0 0.00 0.00 0.00 77 1013.4
20260507101513 20 196 1.6 1.6 0.00 0.00 0.00 77 1013.3
20260507101014 20 162 0.0 0.0 0.00 0.00 0.00 74 1013.3
20260507100509 21 146 0.0 0.0 0.00 0.00 0.00 73 1013.3
20260507100031 20 207 0.0 0.0 0.00 0.00 0.00 76 1013.3
20260507095509 20 119 0.0 0.0 0.00 0.00 0.00 74 1013.3
20260507095013 20 126 0.0 0.0 0.00 0.00 0.00 81 1013.3
20260507094513 18 159 0.0 0.0 0.00 0.00 0.00 79 1013.3
20260507094014 20 119 0.0 0.0 0.00 0.00 0.00 77 1013.3
20260507093509 18 210 0.0 0.0 0.00 0.00 0.00 77 1013.2
20260507093023 18 154 0.0 0.0 0.00 0.00 0.00 76 1013.2
20260507092509 18 186 0.0 0.0 0.00 0.00 0.00 75 1013.1
20260507092013 20 124 0.0 0.0 0.00 0.00 0.00 72 1013.0
20260507091513 20 148 0.0 0.0 0.00 0.00 0.00 68 1013.0
20260507091013 21 250 0.0 0.0 0.00 0.00 0.00 72 1012.9
20260507090509 18 139 0.0 0.0 0.00 0.00 0.00 73 1012.8
20260507090032 18 172 0.0 0.0 0.00 0.00 0.00 73 1012.9
20260507085508 20 169 0.0 0.0 0.00 0.00 0.00 70 1012.7
20260507085013 20 185 0.0 0.0 0.00 0.00 0.00 68 1012.7
20260507084513 20 165 0.0 0.0 0.00 0.00 0.00 66 1012.7
20260507084013 21 122 0.0 0.0 0.00 0.00 0.00 62 1012.6
20260507083509 21 117 0.0 0.0 0.00 0.00 0.00 57 1012.6
20260507083022 21 127 0.0 0.0 0.00 0.00 0.00 56 1012.6
20260507082509 21 123 0.0 0.0 0.00 0.00 0.00 55 1012.7
20260507082013 21 131 0.0 0.0 0.00 0.00 0.00 57 1012.8
20260507081514 20 124 0.0 0.0 0.00 0.00 0.00 58 1012.9
20260507081013 21 109 0.0 0.0 0.00 0.00 0.00 58 1012.9
20260507080509 20 150 0.0 0.0 0.00 0.00 0.00 59 1012.8
20260507080031 20 154 0.0 0.0 0.00 0.00 0.00 60 1012.8
20260507075509 20 127 1.6 6.4 0.00 0.00 0.00 61 1012.7
20260507075013 21 138 1.6 1.6 0.00 0.00 0.00 58 1012.8
20260507074513 21 127 3.2 14.5 0.00 0.00 0.00 58 1012.8
20260507074013 21 133 3.2 8.0 0.00 0.00 0.00 58 1012.9
20260507073509 20 129 6.4 9.7 0.00 0.00 0.00 60 1012.8
20260507073024 20 167 3.2 3.2 0.00 0.00 0.00 60 1012.8
20260507072509 21 140 1.6 1.6 0.00 0.00 0.00 59 1012.9
20260507072014 22 113 1.6 3.2 0.00 0.00 0.00 58 1013.0
20260507071513 21 141 1.6 1.6 0.00 0.00 0.00 57 1013.1
20260507071014 22 90 0.0 0.0 0.00 0.00 0.00 58 1013.1
20260507070510 22 95 0.0 0.0 0.00 0.00 0.00 58 1012.9
20260507070033 22 92 0.0 0.0 0.00 0.00 0.00 60 1012.9
20260507065511 22 84 0.0 0.0 0.00 0.00 0.00 63 1012.8
20260507065014 22 82 0.0 0.0 0.00 0.00 0.00 63 1012.8
20260507064514 21 87 0.0 0.0 0.00 0.00 0.00 65 1012.7
20260507064014 21 90 0.0 0.0 0.00 0.00 0.00 70 1012.6
20260507063509 21 107 0.0 0.0 0.00 0.00 0.00 73 1012.6
20260507063023 21 91 0.0 0.0 0.00 0.00 0.00 82 1012.5
20260507062510 20 92 0.0 0.0 0.00 0.00 0.00 88 1012.5
20260507062013 18 85 0.0 0.0 0.00 0.00 0.00 86 1012.5
20260507061512 20 94 0.0 0.0 0.00 0.00 0.00 90 1012.5
20260507060510 17 67 0.0 0.0 0.00 0.00 0.00 94 1012.4
20260507060034 17 67 0.0 0.0 0.00 0.00 0.00 94 1012.4
20260507055509 17 66 0.0 0.0 0.00 0.00 0.00 94 1012.3
20260507055014 17 68 0.0 0.0 0.00 0.00 0.00 99 1012.3
20260507054514 17 68 1.6 6.4 0.00 0.00 0.00 96 1012.2
20260507054013 17 33 4.8 6.4 0.00 0.00 0.00 99 1012.2
20260507053510 17 43 0.0 0.0 0.00 0.00 0.00 99 1012.2
20260507052510 16 60 0.0 0.0 0.00 0.00 0.00 99 1012.1
20260507052013 13 51 0.0 0.0 0.00 0.00 0.00 99 1012.0
20260507051513 13 49 0.0 0.0 0.00 0.00 0.00 99 1012.0
20260507051014 13 69 0.0 0.0 0.00 0.00 0.00 99 1011.9
20260507050510 13 50 0.0 0.0 0.00 0.00 0.00 99 1011.8
20260507050031 13 37 8.0 8.0 0.00 0.00 0.00 99 1011.8
20260507045509 12 43 4.8 4.8 0.00 0.00 0.00 99 1011.7
20260507045013 13 59 3.2 6.4 0.00 0.00 0.00 99 1011.6
20260507044513 13 44 6.4 6.4 0.00 0.00 0.00 99 1011.6